Regional Weather Roundup
Issued by NWS

Home | Current Version | Previous Version | Graphics & Text | Print | Product List | Glossary On
Versions: 1 2 3 4 5 6 7 8 9 10 11 12 13 14 15 16 17 18 19 20 21 22 23 24 25 26 27 28 29 30 31 32 33 34 35 36 37 38 39 40 41 42 43 44 45 46 47 48 49 50
000
ASUS43 KDTX 221710
RWRMI
MICHIGAN HOURLY REGIONAL WEATHER ROUNDUP
NATIONAL WEATHER SERVICE DETROIT/PONTIAC MI
100 PM EDT FRI SEP 22 2017

NOTE: "FAIR" INDICATES FEW OR NO CLOUDS BELOW 12,000 FEET WITH NO
SIGNIFICANT WEATHER AND/OR OBSTRUCTION TO VISIBILITY.

MIZ047>049-052>055-059>063-066>070-074>076-081>083-221800-
SOUTHEAST LOWER MICHIGAN

CITY           SKY/WX    TMP DP  RH WIND       PRES   REMARKS
ADRIAN         SUNNY     89  68  49 SE6       30.12F HX  93
ALMA           SUNNY     90  61  38 SW8       30.11S HX  90
ANN ARBOR      SUNNY     88  71  57 VRB3      30.12S HX  94
BAD AXE        SUNNY     85  66  53 S3        30.12F
CARO           SUNNY     87  68  52 CALM      30.11F HX  91
DETROIT CITY   SUNNY     84  67  56 E3        30.12F
DETROIT        SUNNY     85  70  60 CALM      30.13S
FLINT          SUNNY     88  69  53 SW3       30.12F HX  92
GROSSE ILE     SUNNY     77  68  74 S6        30.12F
HILLSDALE      SUNNY     88  64  45 CALM      30.13F
HOWELL         SUNNY     87  69  54 CALM      30.13S HX  91

CITY           SKY/WX    TMP DP  RH WIND       PRES   REMARKS
JACKSON        SUNNY     90  66  45 CALM      30.12F HX  92
LAMBERTVILLE   SUNNY     86  71  59 CALM      30.11F HX  91
LANSING        MOSUNNY   88  67  49 CALM      30.12F HX  91
LAPEER         FAIR      86  66  50 CALM      30.13F
MASON          MOSUNNY   87  67  50 CALM      30.12F HX  90
MONROE         SUNNY     82  68  60 SE5       30.12S
MT. CLEMENS    SUNNY     81  69  65 S7        30.12S
PONTIAC        MOSUNNY   86  69  56 VRB3      30.12F HX  90
PORT HOPE        N/A     75  69  81 E6        30.10S
PORT HURON     SUNNY     86  66  51 SW3       30.12F
TRI CITIES     SUNNY     89  71  55 S7        30.11F HX  95
MIDLAND        FAIR      90  70  51 SW3       30.09F HX  95
TROY           SUNNY     85  68  56 CALM      30.14S
SAGINAW HB     SUNNY     88  68  51 CALM      30.10F HX  91
$$
MIZ043>046-050>051-056>058-064>065-071>073-077>080-221800-
SOUTHWEST LOWER MICHIGAN

CITY           SKY/WX    TMP DP  RH WIND       PRES   REMARKS
BATTLE CREEK   SUNNY     92  68  45 VRB7      30.13S HX  96
BENTON HARBOR    N/A     88  66  48 W8        30.10S HX  90
BIG RAPIDS     SUNNY     88  63  44 W8        30.09F
COLDWATER      SUNNY     88  63  43 NE3       30.12F
FREMONT        FAIR      89  66  46 W8        30.08F HX  91
HOLLAND        SUNNY     90  65  43 SW9       30.11S HX  92
GRAND RAPIDS   MOSUNNY   92  66  42 W3        30.10F HX  94
IONIA          FAIR      91  64  41 SW7       30.10F HX  92
KALAMAZOO      SUNNY     89  65  44 W3        30.12S HX  91
LUDINGTON      SUNNY     84  67  56 SW13      30.06F
MARSHALL       SUNNY     88  67  49 W7        30.12  HX  91
MOUNT PLEASANT MOSUNNY   91  65  41 SW3       30.09F HX  93
MUSKEGON       MOSUNNY   88  67  49 S10       30.09F HX  91
SOUTH HAVEN    SUNNY     90  64  42 W7        30.10F HX  91
$$
MIZ016>042-221800-
NORTHERN LOWER MICHIGAN

CITY           SKY/WX    TMP DP  RH WIND       PRES   REMARKS
ALPENA         SUNNY     87  72  60 SW7       30.07F HX  93
BEAVER ISLAND  SUNNY     84  69  59 SW13      30.02F
BELLAIRE       SUNNY     88  66  47 SW7       30.05F HX  90
CADILLAC       SUNNY     90  65  44 SW9       30.09F HX  91
CHARLEVOIX     SUNNY     88  67  49 SW6       30.06F HX  90
FRANKFORT      SUNNY     86  69  56 S13       30.05S HX  90
GAYLORD        SUNNY     86  68  54 SW12      30.09F
GRAYLING       SUNNY     87  67  50 S7        30.10F HX  90
HARBOR SPRINGS SUNNY     85  67  54 SW6       30.03F
HOUGHTON LAKE  SUNNY     87  68  52 SW7       30.10F HX  90
MANISTEE       SUNNY     88  71  57 SW8       30.04F HX  94
OSCODA         SUNNY     88  69  54 SW7G18    30.08F HX  92
PELLSTON       SUNNY     89  67  47 VRB6      30.04F HX  92
ROGERS CITY    SUNNY     88  72  58 SW7       30.06F HX  94
TRAVERSE CITY  MOSUNNY   92  64  39 SW9       30.03F HX  93
$$
MIZ007>008-015-221800-
EASTERN UPPER MICHIGAN

CITY           SKY/WX    TMP DP  RH WIND       PRES   REMARKS
KINROSS        SUNNY     82  71  69 S10       30.03F
MACKINAC ISLAN SUNNY     82  68  63 W3        30.03F
NEWBERRY       SUNNY     80  73  78 S14G20    30.00F
S. S. MARIE    SUNNY     80  70  71 SE8       30.01F
MUNISING         N/A     84  73  69 S9G17     29.96S HX  90
$$
MIZ004>006-011>014-085-221800-
CENTRAL UPPER MICHIGAN

CITY           SKY/WX    TMP DP  RH WIND       PRES   REMARKS
MANISTIQUE     SUNNY     72  66  81 S9        30.00F
ESCANABA       SUNNY     77  70  79 S9        29.98F
MENOMINEE      CLOUDY    84  72  67 SW10      29.99F
SAWYER-GWINN   SUNNY     82  70  65 SW13      29.99R
$$
MIZ001>003-009>011-084-221800-
WESTERN UPPER MICHIGAN

CITY           SKY/WX    TMP DP  RH WIND       PRES   REMARKS
IRON MOUNTAIN  CLOUDY    83  69  62 S7        29.98S
HOUGHTON       CLOUDY    68  62  81 E5        29.92F
COPPER HARBOR    N/A     63  61  93 E5        29.93F
IRONWOOD         N/A    N/A N/A N/A MISG        N/A  THUNDER
$$

ABBREVIATIONS USED IN REMARKS
   TC - TEMPERATURE IN CELSIUS
  WCI - WIND CHILL INDEX
   HX - HEAT INDEX
  VSB - VISIBILITY




USA.gov is the U.S. government's official web portal to all federal, state and local government web resources and services.